SCP
0 0 0 0 0 0 0 0 0 0 0 0 0 0 0 0 0 0 0 0 0 0 0 0 0 0 0 0 0 0 0 0 0 0 0 0 0 0 0 0 0 0 0
0 0 0 0 0 0 0 0 0 0 0 0 0 0 0 0 0 0 0 0 0 0 0 0 0 0 0 0 0 0 0 0 0 0 0 0 0 0 0 0 0 0 0
0 0 0 0 0 0 0 0 0 0 0 0 0 0 0 0 0 0 0 0 0 0 0 0 0 0 0 0 0 0 0 0 0 0 0 0 0 0 0 0 0 0 0
0 0 0 0 0 0 0 0 0 0 0 0 0 0 0 0 0 0 0 0 0 0 0 0 0 0 0 0 0 0 0 0 0 0 0 0 0 0 0 0 0 0 0
0 0 0 0 0 0 0 0 0 0 0 0 0 0 0 0 0 0 0 0 0 0 0 0 0 0 0 0 0 0 0 0 0 0 0 0 0 0 0 0 0 0 0
0 0 0 0 0 0 0 0 0 0 0 0 0 0 0 0 0 0 0 0 0 0 0 0 0 0 0 0 0 0 0 0 0 0 0 0 0 0 0 0 0 0 0
0 0 0 0 0 0 0 0 0 0 0 0 0 0 0 0 0 0 0 0 0 0 0 0 0 0 0 0 0 0 0 0 0 0 0 0 0 0 0 0 0 0 0
0 0 0 0 0 0 0 0 0 0 0 0 0 0 0 0 0 0 0 0 0 0 0 0 0 0 0 0 0 0 0 0 0 0 0 0 0 0 0 0 0 0 0
0 0 0 0 0 0 0 0 0 0 0 0 0 0 0 0 0 0 0 0 0 0 0 0 0 0 0 0 0 0 0 0 0 0 0 0 0 0 0 0 0 0 -0
0 0 0 0 0 0 0 0 0 0 0 0 0 0 0 0 0 0 0 0 0 0 0 0 0 0 0 0 0 0 0 0 0 0 0 0 0 0 0 0 0 -0 -0
0 0 0 0 0 0 0 0 0 0 0 0 0 0 0 0 0 0 0 0 0 0 0 0 0 0 0 0 0 0 0 0 0 0 0 0 0 0 0 0 -0 -0 -0
0 0 0 0 0 0 0 0 0 0 0 0 0 0 0 0 0 0 0 0 0 0 0 0 0 0 0 0 0 0 0 0 0 0 0 0 0 0 -0 -0 -0 -0 -0
0 0 0 0 0 0 0 0 0 0 0 0 0 0 0 0 0 0 0 0 0 0 0 0 0 0 0 0 0 0 0 0 0 0 0 0 0 -0 -0 -0 -0 -0 -0
0 0 0 0 0 0 0 0 0 0 0 0 0 0 0 0 0 0 0 0 0 0 0 0 0 0 0 0 0 0 0 0 0 0 0 0 0 0 0 0 0 0 0
0 0 0 0 0 0 0 0 0 0 0 0 0 0 0 0 0 0 0 0 0 0 0 0 0 0 0 0 0 0 0 0 0 0 0 0 0 0 0 0 0 0 0
0 0 0 0 0 0 0 0 0 0 0 0 0 0 0 0 0 0 0 0 0 0 0 0 0 0 0 0 0 0 0 0 0 0 0 0 0 0 0 0 0 0 0
0 0 0 0 0 0 0 0 0 0 0 0 0 0 0 0 0 0 0 0 0 0 0 0 0 0 0 0 0 0 0 0 0 0 0 0 0 0 0 0 0 0 0
0 0 0 0 0 0 0 0 0 0 0 0 0 0 0 0 0 0 0 0 0 0 0 0 0 0 0 0 0 0 0 0 0 0 0 0 0 0 0 0 0 0 0
0 0 0 0 0 0 0 0 0 0 0 0 0 0 0 0 0 0 0 0 0 0 0 0 0 0 0 0 0 0 0 0 0 0 0 0 0 0 0 0 0 0 0
0 0 0 0 0 0 0 0 0 0 0 0 0 0 0 0 0 0 0 0 0 0 0 0 0 0 0 0 0 0 0 0 0 0 0 0 0 0 0 0 0 0 0
0 0 0 0 0 0 0 0 0 0 0 0 0 0 0 0 0 0 0 0 0 0 0 0 0 0 0 0 0 0 0 0 0 0 0 0 0 0 0 0 0 0 0
0 0 0 0 0 0 0 0 0 0 0 0 0 0 0 0 0 0 0 0 0 0 0 0 0 0 0 0 0 0 0 0 0 0 0 0 0 0 0 0 0 0 0
0 0 0 0 0 0 0 0 0 0 0 0 0 0 0 0 0 0 0 0 0 0 0 0 0 0 0 0 0 0 0 0 0 0 0 0 0 0 0 0 0 0 -0
0 0 0 0 0 0 0 0 0 0 0 0 0 0 0 0 0 0 0 0 0 0 0 0 0 0 0 0 0 0 0 0 0 0 0 0 0 0 0 0 0 0 0
0 0 0 0 0 0 0 0 0 0 0 0 0 0 0 0 0 0 0 0 0 0 0 0 0 0 0 0 0 0 0 0 0 0 0 0 0 0 0 0 0 0 0
0 0 0 0 0 0 0 0 0 0 0 0 0 0 0 0 0 0 0 0 0 0 0 0 0 0 0 0 0 0 0 0 0 0 0 0 0 0 0 0 0 0 0
Wind_Speed
6 6 6 5 5 5 5 6 6 7 8 9 9 10 11 11 12 11 11 12 13 14 13 14 15 15 13 12 12 12 13 14 17 17 17 19 24 22 19 19 19 19 18
5 5 5 5 4 4 5 6 7 8 8 9 10 10 11 11 12 13 13 13 14 15 15 16 16 14 16 14 13 14 14 15 15 19 18 19 23 23 21 20 18 17 18
5 4 4 4 4 5 6 6 7 8 9 9 10 10 11 12 13 13 13 15 16 16 16 16 17 17 17 14 16 15 13 14 15 17 19 17 17 18 20 19 21 18 18
4 3 3 4 5 6 6 7 7 8 9 10 10 11 12 12 12 13 15 17 17 17 16 16 16 16 17 18 16 16 15 17 17 16 16 16 17 19 18 17 17 16 16
3 2 3 4 5 6 6 7 8 8 9 10 11 11 12 11 11 15 17 17 18 18 17 16 16 18 21 19 16 17 18 16 16 16 16 17 17 17 17 16 18 17 17
2 2 3 4 5 6 7 8 9 9 10 10 11 12 13 11 16 21 20 17 17 17 17 17 17 17 19 24 26 26 25 21 19 18 17 19 21 20 18 17 17 18 18
1 2 4 5 6 7 8 9 9 10 11 12 13 13 15 16 19 21 22 19 17 16 17 16 15 15 21 18 23 27 25 27 26 21 21 21 22 21 21 22 20 20 20
1 3 4 6 7 8 9 9 10 10 11 12 13 14 15 15 19 21 24 18 16 16 16 17 18 19 18 22 22 23 22 20 22 19 19 21 21 21 21 22 22 21 21
2 4 5 6 8 9 10 11 11 11 12 13 13 15 16 16 18 21 22 16 14 17 16 17 19 19 24 29 25 24 23 20 21 27 30 29 31 31 25 17 17 16 17
3 5 6 7 8 10 11 11 11 12 12 13 13 14 15 15 17 20 22 13 15 15 15 16 20 22 27 31 25 23 23 22 22 23 23 22 21 21 24 18 14 14 16
4 6 7 8 9 10 11 11 12 12 13 13 14 13 13 14 17 19 21 14 15 16 15 15 15 25 31 33 30 21 24 26 21 20 17 16 16 14 14 14 14 14 15
5 6 8 9 8 8 10 11 12 12 13 14 13 13 10 11 15 18 22 22 22 18 16 15 17 29 33 32 24 24 30 27 15 14 15 15 14 14 14 15 17 17 16
6 7 8 9 9 9 10 11 11 11 11 11 12 12 11 11 13 20 22 25 27 19 16 23 28 31 28 21 22 28 24 15 14 15 15 15 14 15 16 15 16 16 16
7 8 8 9 9 9 8 8 9 10 10 11 12 13 13 12 12 12 14 16 20 18 16 20 26 24 20 21 21 17 13 14 15 14 15 15 15 14 14 14 14 13 12
8 8 8 8 9 9 9 9 10 10 11 14 13 13 14 14 16 26 22 17 17 17 20 15 14 14 14 14 14 14 14 14 14 14 15 15 15 15 14 13 12 11 10
7 7 7 7 8 9 10 10 11 13 17 19 20 19 16 20 27 29 29 29 30 28 21 13 13 14 14 15 15 15 15 14 14 14 14 14 15 14 14 12 10 9 7
7 8 7 8 8 9 10 11 12 12 14 17 18 20 21 25 27 28 28 28 26 24 14 12 13 14 14 14 15 15 15 15 15 14 14 14 14 13 12 11 9 7 5
7 8 8 8 8 9 10 10 11 12 13 11 13 19 22 23 25 26 26 22 15 14 11 12 13 14 14 14 15 15 15 15 14 14 14 13 13 11 10 10 8 8 6
7 6 7 8 8 9 10 10 11 12 12 13 13 14 18 20 22 22 21 12 12 12 12 13 13 14 14 14 14 15 15 15 15 14 13 13 11 10 9 9 8 10 7
6 9 10 9 9 9 9 10 11 11 12 12 13 13 14 15 13 13 12 12 12 12 13 14 14 14 14 14 14 14 14 14 15 13 12 11 10 9 9 9 8 7 6
7 8 11 9 8 9 10 10 11 11 12 12 12 14 21 14 13 13 12 12 12 13 13 14 14 14 14 13 13 15 17 14 13 12 11 11 10 9 8 7 7 6 5
7 7 7 8 9 9 10 11 11 11 12 14 12 13 20 13 11 12 12 12 13 12 13 13 13 13 13 13 14 15 15 14 13 12 11 10 9 9 8 7 6 6 5
7 8 9 9 9 12 12 10 10 11 12 12 12 12 12 11 12 12 13 13 13 13 13 13 14 14 13 13 14 13 13 13 12 12 11 10 9 8 7 7 7 7 6
8 9 10 10 10 10 10 11 10 11 12 12 12 12 12 12 12 13 13 12 13 13 13 13 14 18 22 18 14 13 12 13 12 10 10 9 9 7 7 6 6 6 5
8 9 10 10 10 10 10 10 11 11 11 11 12 12 12 12 12 12 12 12 14 14 17 17 14 15 21 24 20 15 18 21 16 10 8 7 8 8 7 6 5 5 4
8 9 9 9 9 9 9 10 11 11 11 11 11 11 12 12 12 12 12 12 13 14 15 14 17 21 24 18 19 21 22 20 18 15 9 6 7 7 7 5 6 5 5
Wind_Direction
98 88 76 63 46 34 25 12 358 348 342 338 333 328 326 324 323 319 316 316 312 309 307 305 303 303 301 299 297 292 290 289 288 292 295 299 302 299 295 292 290 289 287
95 82 69 54 34 21 16 3 349 342 336 332 325 321 321 320 320 317 314 313 310 308 307 306 304 304 302 300 297 296 294 292 292 295 296 297 297 299 298 297 295 290 288
95 77 62 40 19 10 3 352 341 334 327 325 321 319 318 318 316 312 313 311 308 306 306 305 304 304 302 302 302 299 298 299 297 294 293 295 295 297 301 298 295 292 290
95 70 43 19 6 357 348 338 331 325 320 320 318 315 314 314 310 316 316 311 308 307 304 303 303 303 304 306 302 302 303 302 297 294 295 297 297 298 297 296 296 293 291
105 69 24 359 352 343 336 327 320 315 313 312 310 312 314 312 315 322 315 311 309 306 304 304 303 303 300 300 301 304 304 299 298 298 299 300 298 299 299 299 294 295 291
114 38 4 346 340 333 326 318 312 310 311 311 312 314 314 313 318 315 314 311 307 305 307 307 305 303 303 304 303 302 299 298 299 301 301 300 299 299 298 296 296 294 293
76 9 349 338 329 322 316 310 310 312 313 313 314 315 313 312 315 315 315 311 306 306 307 307 306 305 307 305 305 304 301 297 296 299 299 298 298 298 298 295 292 291 288
21 347 340 329 320 314 310 311 313 313 312 312 313 312 310 310 315 316 316 312 308 306 306 305 304 306 307 309 308 306 302 300 300 301 298 296 294 294 292 291 292 289 284
338 335 330 319 312 311 313 315 315 312 311 311 311 309 309 310 315 316 318 315 308 308 307 305 305 305 308 312 312 308 306 306 307 305 301 297 296 297 296 293 289 288 287
329 321 313 309 308 310 311 311 311 310 308 309 307 308 308 308 312 316 320 313 311 311 308 306 306 308 311 314 314 311 310 311 311 308 306 304 301 297 295 290 291 293 293
311 305 306 309 308 306 305 307 307 307 306 307 308 309 307 308 312 316 320 317 314 312 310 310 310 313 315 316 317 312 310 312 310 308 307 304 300 297 297 295 292 289 289
305 306 307 306 304 301 304 306 308 309 310 311 312 311 310 312 314 316 317 316 314 311 309 309 311 315 317 319 318 313 315 316 309 306 303 302 303 303 301 298 292 286 279
307 304 302 301 300 301 304 308 311 313 312 313 312 313 316 317 315 316 316 316 316 314 308 310 313 316 319 318 315 317 318 313 309 306 305 305 304 301 299 295 292 286 280
298 299 300 302 305 308 307 307 311 313 312 312 313 315 316 315 315 318 317 316 317 315 313 314 316 317 318 317 317 317 315 310 309 306 305 304 303 301 300 299 297 296 293
291 295 300 302 305 307 307 308 309 303 305 309 310 312 312 313 314 316 317 317 317 315 320 317 317 320 319 318 317 316 315 313 313 310 308 307 306 305 303 303 299 298 300
290 299 304 305 307 308 310 307 298 296 302 303 302 303 305 305 310 315 317 318 319 322 324 318 318 318 318 319 318 316 315 314 314 312 309 308 308 307 307 309 310 313 321
287 298 302 303 307 310 310 310 312 310 306 303 303 305 306 309 313 316 318 320 322 325 321 317 316 317 317 316 314 313 312 313 312 310 310 310 309 309 313 319 327 334 341
290 293 298 303 306 306 307 309 309 311 313 312 311 309 311 315 317 317 320 324 322 324 319 317 316 316 315 313 312 311 311 312 312 312 311 310 311 314 322 330 336 344 343
294 299 304 304 303 303 305 306 305 306 307 309 311 313 319 320 318 318 326 324 319 319 318 317 316 314 312 311 311 310 310 310 311 312 311 313 315 320 327 331 334 342 347
293 299 305 304 303 305 305 304 305 305 307 309 312 316 321 321 319 322 325 320 318 317 318 316 315 312 312 311 311 311 311 311 312 312 313 314 318 323 325 328 332 335 340
298 300 302 300 301 303 303 303 303 305 308 309 309 313 319 318 317 319 319 318 318 318 317 316 313 312 311 311 311 312 312 310 311 311 313 315 320 321 322 323 325 328 333
295 297 300 300 301 302 303 302 305 306 307 307 310 314 317 316 314 314 315 316 316 315 315 313 311 310 311 312 313 312 310 310 311 313 315 318 320 320 322 324 329 332 340
294 297 299 301 301 303 304 302 303 305 307 308 309 311 313 314 314 314 315 316 316 315 315 313 311 311 313 314 312 309 307 308 309 312 318 318 319 321 324 328 333 337 347
293 298 302 303 303 302 303 305 305 305 306 308 308 308 310 312 313 313 314 314 315 314 314 314 311 312 316 319 316 312 308 311 315 318 317 311 314 320 324 328 331 340 344
302 303 303 303 303 303 304 303 303 305 305 305 305 307 310 311 311 312 313 314 316 315 316 315 313 316 319 320 319 318 320 327 332 330 318 312 315 318 323 328 336 346 359
303 303 302 301 301 301 301 301 301 302 302 303 306 308 309 309 310 312 314 315 318 317 314 314 315 319 320 319 319 323 328 335 338 341 335 320 324 332 339 345 356 9 22